Regional Weather Roundup
Issued by NWS

Home | Current Version | Previous Version | Graphics & Text | Print | Product List | Glossary On
Versions: 1 2 3 4 5 6 7 8 9 10 11 12 13 14 15 16 17 18 19 20 21 22 23 24 25 26 27 28 29 30 31 32 33 34 35 36 37 38 39 40 41 42 43 44 45 46 47 48 49 50
000
ASUS43 KTOP 180308
RWRKS

WEATHER ROUNDUP FOR KANSAS
NATIONAL WEATHER SERVICE GOODLAND KS
1000 PM CDT FRI APR 17 2015

NOTE:  "FAIR" INDICATES FEW OR NO CLOUDS BELOW 12,000 FEET WITH NO
SIGNIFICANT WEATHER AND/OR OBSTRUCTIONS TO VISIBILITY.

KSZ001>006-013>018-027>032-041>047-180400-
NORTHWEST KANSAS

CITY           SKY/WX    TMP DP  RH WIND       PRES   REMARKS
GOODLAND       TSTM      49  47  93 NE12      29.98R
HAYS           CLOUDY    63  50  63 SE7       29.96R
HILL CITY      LGT RAIN  60  56  86 CALM      29.97R
RUSSELL        CLOUDY    63  56  78 SE8       29.93S
$$

KSZ061>065-074>080-084>089-180400-
SOUTHWEST KANSAS

CITY           SKY/WX    TMP DP  RH WIND       PRES   REMARKS
DODGE CITY     CLOUDY    60  56  86 SE14      29.94R
ELKHART          N/A    N/A N/A N/A MISG        N/A
GARDEN CITY    PTCLDY    56  53  90 E13       29.91R
GREAT BEND     CLOUDY    63  55  77 S14       29.94R
LIBERAL        MOCLDY    61  52  72 SE8       29.95R
PRATT          CLOUDY    61  55  82 S10       29.97R
$$

KSZ066>073-081>083-090>101-180400-
SOUTHEAST KANSAS

CITY           SKY/WX    TMP DP  RH WIND       PRES   REMARKS
CHANUTE        CLOUDY    65  61  87 E3        29.97R
COFFEYVILLE    CLOUDY    66  62  87 N5        29.96R
HUTCHINSON     CLOUDY    64  56  75 SE3       29.96R
MEDICINE LODGE   N/A     64  58  80 SE5       29.95R
NEWTON         CLOUDY    64  54  68 CALM      29.99R
PARSONS        CLOUDY    65  63  93 CALM      29.98R
WICHITA INTL   CLOUDY    64  57  78 S5        29.97R
WICHITA JABRA  CLOUDY    64  56  75 S6        29.96R
WICHITA MCCONL CLOUDY    64  58  80 SE3       29.97R
WINFIELD       CLOUDY    63  60  90 MISG      29.97R
$$

KSZ007>012-019>026-033>040-048>060-102>105-180400-
NORTHEAST KANSAS

CITY           SKY/WX    TMP DP  RH WIND       PRES   REMARKS
CONCORDIA      CLOUDY    62  56  80 E6        29.96S
EMPORIA        CLOUDY    62  58  86 E6        29.97R
LAWRENCE       CLOUDY    62  59  90 CALM      29.98R
MANHATTAN      CLOUDY    66  58  75 CALM      29.96R
MARYSVILLE     CLOUDY    61  55  82 E6        29.98S
OLATHE IND     CLOUDY    65  57  75 CALM      29.99R
OLATHE EXE     CLOUDY    66  58  75 CALM      29.98R
SALINA         CLOUDY    66  58  75 SE6       29.95R
TOPEKA BILLARD CLOUDY    64  57  78 CALM      29.98R
TOPEKA FORBES  CLOUDY    65  57  75 E5        29.98R
$$



USA.gov is the U.S. government's official web portal to all federal, state and local government web resources and services.